Knob Noster, MO

4:34 AM CDT on August 24, 2016 (GMT -0500)
Whiteman Air Force Base

Weather History for KSZL - June, 2013

Change the Weather History Date:

Saturday, June 8, 2013

  Actual Average Record
Temperature  
Mean Temperature 66 °F -  
Max Temperature 79 °F 79 °F 91 °F (2011)
Min Temperature 52 °F 61 °F 52 °F (2013)
Growing Degree Days 16 (Base 50)    
Moisture  
Dew Point 58 °F    
Average Humidity 74    
Maximum Humidity 100    
Minimum Humidity 48    
Precipitation  
Precipitation 0.00 in - - ()
Sea Level Pressure  
Sea Level Pressure 29.90 in    
Wind  
Wind Speed 5 mph (South)    
Max Wind Speed 16 mph    
Max Gust Speed 21 mph    
Visibility 10 miles    
Events      
Averages and records for this station are not official NWS values.
T = Trace of Precipitation, MM = Missing Value Source: NWS Daily Summary

Daily Weather History Graph

Daily Weather History Graph

Search for Another Location

Airport or City:

Trip Planner

Search our weather history database for the weather conditions in past years. The results will help you decide how hot, cold, wet, or windy it might be!

Date:

Astronomy

Jun. 08, 2013 Rise Set
Actual Time 5:49 AM CDT 8:37 PM CDT
Civil Twilight 5:17 AM CDT 9:09 PM CDT
Nautical Twilight 4:37 AM CDT 9:49 PM CDT
Astronomical Twilight 3:52 AM CDT 10:34 PM CDT
Moon 5:56 AM CDT (6/8) 8:41 PM CDT (6/8)
Length of Visible Light 15h 51m
Length of Day
14h 48m
New Moon, 0% of the Moon is Illuminated
Jun 8
New Moon
Jun 16
First Quarter
Jun 23
Full
Jun 29
Last Quarter
Jul 8
New

Hourly Weather History & Observations

Time (CDT) Temp. Dew Point Humidity Pressure Visibility Wind Dir Wind Speed Gust Speed Precip Events Conditions
12:51 AM 57.2 °F 57.2 °F 100% 29.96 in 10.0 mi Calm Calm - N/A   Light Drizzle
12:58 AM 57.6 °F 57.6 °F 100% 29.96 in 10.0 mi Calm Calm - 0.00 in   Light Drizzle
1:01 AM 57.2 °F 57.2 °F 100% 29.96 in 10.0 mi Calm Calm - N/A   Mostly Cloudy
1:58 AM 57.9 °F 57.6 °F 99% 29.94 in 10.0 mi Calm Calm - 0.00 in   Clear
2:58 AM 55.0 °F 55.0 °F 100% 29.92 in 10.0 mi Calm Calm - N/A   Clear
3:58 AM 54.1 °F 54.1 °F 100% 29.91 in 10.0 mi Calm Calm - N/A   Clear
4:58 AM 52.5 °F 52.5 °F 100% 29.92 in 10.0 mi Calm Calm - N/A   Clear
5:58 AM 52.0 °F 52.0 °F 100% 29.94 in 10.0 mi Calm Calm - N/A   Clear
6:58 AM 56.1 °F 56.1 °F 100% 29.94 in 10.0 mi SSE 3.5 mph - N/A   Clear
7:58 AM 61.7 °F 61.5 °F 99% 29.95 in 10.0 mi South 5.8 mph - N/A   Clear
8:58 AM 67.1 °F 59.5 °F 77% 29.95 in 10.0 mi SSW 11.5 mph - N/A   Clear
9:58 AM 70.9 °F 57.9 °F 63% 29.95 in 10.0 mi SW 12.7 mph - N/A   Clear
10:58 AM 72.9 °F 58.1 °F 60% 29.95 in 10.0 mi SSW 10.4 mph - N/A   Clear
11:58 AM 74.3 °F 55.4 °F 52% 29.93 in 10.0 mi South 10.4 mph - N/A   Clear
12:58 PM 75.2 °F 55.6 °F 50% 29.91 in 10.0 mi SSW 10.4 mph - N/A   Partly Cloudy
1:58 PM 76.6 °F 55.4 °F 48% 29.89 in 10.0 mi South 13.8 mph 20.7 mph N/A   Partly Cloudy
2:58 PM 76.5 °F 55.2 °F 48% 29.88 in 10.0 mi South 10.4 mph - N/A   Scattered Clouds
3:58 PM 78.6 °F 57.2 °F 48% 29.87 in 10.0 mi South 11.5 mph - N/A   Partly Cloudy
4:58 PM 79.0 °F 58.1 °F 49% 29.86 in 10.0 mi South 16.1 mph 17.3 mph N/A   Clear
5:58 PM 78.6 °F 58.6 °F 50% 29.85 in 10.0 mi South 13.8 mph - N/A   Clear
6:58 PM 76.6 °F 58.8 °F 54% 29.82 in 10.0 mi SSE 10.4 mph 19.6 mph N/A   Clear
7:58 PM 74.7 °F 58.3 °F 57% 29.83 in 10.0 mi SSE 8.1 mph - N/A   Clear
8:58 PM 72.1 °F 59.0 °F 63% 29.84 in 10.0 mi SSE 9.2 mph - N/A   Overcast
9:43 PM 69.8 °F 59.0 °F 68% 29.85 in 10.0 mi SE 6.9 mph - N/A   Light Drizzle
9:48 PM 69.8 °F 59.0 °F 68% 29.86 in 10.0 mi SE 8.1 mph - N/A   Mostly Cloudy
9:49 PM 69.8 °F 59.0 °F 68% 29.86 in 10.0 mi SE 8.1 mph - N/A   Light Drizzle
9:53 PM 69.8 °F 60.8 °F 73% 29.86 in 10.0 mi SE 6.9 mph - N/A   Mostly Cloudy
9:58 PM 70.0 °F 60.1 °F 71% 29.85 in 10.0 mi SSE 6.9 mph - 0.00 in   Mostly Cloudy
10:58 PM 70.3 °F 60.8 °F 72% 29.86 in 10.0 mi SSE 9.2 mph - N/A   Scattered Clouds
11:58 PM 69.4 °F 62.2 °F 78% 29.84 in 10.0 mi SSE 11.5 mph - N/A   Overcast